Regional Weather Roundup
Issued by NWS Charleston, WV

Home | Current Version | Previous Version | Text Only | Print | Product List | Glossary Off
Versions: 1 2 3 4 5 6 7 8 9 10 11 12 13 14 15 16 17 18 19 20 21 22 23 24 25 26 27 28 29 30 31 32 33 34 35 36 37 38 39 40 41 42 43 44 45 46 47 48 49 50

000
ASUS41 KRLX 010410
RWRRLX
West Virginia Regional Weather Roundup
National Weather Service Charleston WV
1200 AM EDT FRI AUG 01 2014

Note: "fair" indicates few or no clouds below 12,000 feet with no
significant weather and/or obstructions to visibility.

WVZ003-010500-
Northern Panhandle of West Virginia

CITY           SKY/WX    TMP DP  RH WIND       PRES   REMARKS
WHEELING       CLEAR     66  60  81 S6        30.13S
$$

WVZ009-010500-
Northwest West Virginia

CITY           SKY/WX    TMP DP  RH WIND       PRES   REMARKS
PARKERSBURG    CLEAR     65  63  93 CALM      30.14S FOG
$$

WVZ006-010500-
Western West Virginia

CITY           SKY/WX    TMP DP  RH WIND       PRES   REMARKS
HUNTINGTON     PTCLDY    63  63 100 E3        30.11R
$$

WVZ015-010500-
West Central West Virginia

CITY           SKY/WX    TMP DP  RH WIND       PRES   REMARKS
CHARLESTON     PTCLDY    64  64 100 CALM      30.12R
$$

WVZ031-010500-
North Central West Virginia

CITY           SKY/WX    TMP DP  RH WIND       PRES   REMARKS
CLARKSBURG     PTCLDY    61  58  90 CALM      30.15R
MORGANTOWN     PTCLDY    66  61  84 CALM      30.16R
$$

WVZ035-042-045-010500-
South Central West Virginia

CITY           SKY/WX    TMP DP  RH WIND       PRES   REMARKS
BECKLEY        CLOUDY    66  58  75 SE6       30.20S
BLUEFIELD      CLOUDY    65  58  78 S7        30.23R
LEWISBURG      CLOUDY    64  61  89 CALM      30.22S
$$

WVZ047-010500-
Northern Mountains of West Virginia

CITY           SKY/WX    TMP DP  RH WIND       PRES   REMARKS
ELKINS         CLEAR     57  54  89 CALM      30.20S
$$

WVZ052-010500-
Eastern Panhandle of West Virginia

CITY           SKY/WX    TMP DP  RH WIND       PRES   REMARKS
MARTINSBURG    CLEAR     67  61  81 CALM      30.13S
PETERSBURG     CLEAR     63  57  80 CALM      30.17R
$$


USA.gov is the U.S. government's official web portal to all federal, state and local government web resources and services.